Weather History for Kake, AK

Change the Weather History Date:

Wednesday, January 30, 2013

  Actual Average Record
Temperature  
Mean Temperature 36 °F -  
Max Temperature 39 °F 35 °F 51 °F (2000)
Min Temperature 33 °F 28 °F 15 °F (2008)
Degree Days  
Heating Degree Days 29    
Moisture  
Dew Point 34 °F    
Average Humidity 89    
Maximum Humidity 100    
Minimum Humidity 87    
Precipitation  
Precipitation 0.45 in - - ()
Sea Level Pressure  
Sea Level Pressure 30.10 in    
Wind  
Wind Speed 4 mph (East)    
Max Wind Speed 10 mph    
Max Gust Speed -    
Visibility 9 miles    
Events      
Averages and records for this station are not official NWS values.
T = Trace of Precipitation, MM = Missing Value Source: NWS Daily Summary

Daily Weather History Graph

Daily Weather History Graph

Search for Another Location

Airport:

Trip Planner

Search our weather history database for the weather conditions in past years. The results will help you decide how hot, cold, wet, or windy it might be!

Date:

Astronomy

Jan. 30, 2013 Rise Set
Actual Time 7:57 AM AKST 4:21 PM AKST
Civil Twilight 7:14 AM AKST 5:04 PM AKST
Nautical Twilight 6:28 AM AKST 5:50 PM AKST
Astronomical Twilight 5:43 AM AKST 6:35 PM AKST
Moon 9:30 PM AKST (1/30) 8:33 AM AKST (1/30)
Length of Visible Light 9h 49m
Length of Day
8h 23m
Waning Gibbous, 86% of the Moon is Illuminated
Jan 30
Waning Gibbous
Feb 3
Last Quarter
Feb 9
New
Feb 17
First Quarter
Feb 25
Full

Hourly Weather History & Observations

Time (AKST) Temp. Windchill Dew Point Humidity Pressure Visibility Wind Dir Wind Speed Gust Speed Precip Events Conditions
12:16 AM 33.8 °F - 30.2 °F 87% 30.13 in 10.0 mi Calm Calm - N/A   Overcast
12:36 AM 33.8 °F - 30.2 °F 87% 30.14 in 10.0 mi Calm Calm - N/A   Overcast
12:56 AM 33.8 °F - 30.2 °F 87% 30.14 in 10.0 mi Calm Calm - N/A   Overcast
1:16 AM 33.8 °F - 30.2 °F 87% 30.15 in 5.0 mi Calm Calm - N/A   Overcast
1:36 AM 33.8 °F - 30.2 °F 87% 30.15 in 4.0 mi Calm Calm - N/A   Overcast
1:56 AM 33.8 °F - 32.0 °F 93% 30.16 in 10.0 mi Calm Calm - N/A   Overcast
2:16 AM 33.8 °F 30.8 °F 32.0 °F 93% 30.17 in 10.0 mi East 3.5 mph - N/A   Overcast
2:36 AM 33.8 °F 30.8 °F 32.0 °F 93% 30.17 in 10.0 mi East 3.5 mph - N/A   Overcast
2:56 AM 33.8 °F 27.7 °F 32.0 °F 93% 30.17 in 10.0 mi East 6.9 mph - 0.01 in   Overcast
3:16 AM 33.8 °F - 30.2 °F 87% 30.17 in 10.0 mi Calm Calm - N/A   Overcast
3:36 AM 33.8 °F - 30.2 °F 87% 30.18 in 10.0 mi Calm Calm - N/A   Overcast
3:56 AM 33.8 °F - 30.2 °F 87% 30.18 in 10.0 mi Calm Calm - N/A   Overcast
4:16 AM 33.8 °F 27.0 °F 33.8 °F 100% 30.18 in 10.0 mi ENE 8.1 mph - N/A   Overcast
4:36 AM 33.8 °F 28.6 °F 32.0 °F 93% 30.18 in 5.0 mi East 5.8 mph - N/A   Overcast
4:56 AM 33.8 °F - 30.2 °F 87% 30.19 in 3.0 mi Calm Calm - 0.01 in   Overcast
5:16 AM 33.8 °F - 32.0 °F 93% 30.19 in 6.0 mi Calm Calm - N/A   Overcast
5:36 AM 33.8 °F - 30.2 °F 87% 30.19 in 5.0 mi Calm Calm - N/A   Overcast
5:56 AM 33.8 °F - 30.2 °F 87% 30.19 in 4.0 mi Calm Calm - 0.01 in   Overcast
6:16 AM 35.6 °F 30.7 °F 33.8 °F 93% 30.19 in 5.0 mi ESE 5.8 mph - 0.02 in   Overcast
6:36 AM 35.6 °F 30.7 °F 33.8 °F 93% 30.19 in 9.0 mi ESE 5.8 mph - 0.05 in   Overcast
6:56 AM 35.6 °F 31.7 °F 33.8 °F 93% 30.19 in 6.0 mi ESE 4.6 mph - 0.07 in   Overcast
7:16 AM 35.6 °F 29.9 °F 33.8 °F 93% 30.19 in 9.0 mi East 6.9 mph - 0.03 in   Overcast
7:36 AM 37.4 °F 32.1 °F 33.8 °F 87% 30.19 in 10.0 mi ESE 6.9 mph - 0.05 in   Overcast
7:56 AM 37.4 °F 32.1 °F 33.8 °F 87% 30.19 in 10.0 mi ESE 6.9 mph - 0.08 in   Overcast
8:16 AM 37.4 °F 32.8 °F 33.8 °F 87% 30.19 in 10.0 mi ESE 5.8 mph - 0.03 in   Overcast
8:36 AM 37.4 °F 32.1 °F 33.8 °F 87% 30.19 in 10.0 mi ESE 6.9 mph - 0.05 in   Overcast
8:56 AM 37.4 °F 31.4 °F 33.8 °F 87% 30.19 in 10.0 mi ESE 8.1 mph - 0.07 in   Overcast
9:16 AM 37.4 °F 31.4 °F 33.8 °F 87% 30.19 in 9.0 mi ESE 8.1 mph - 0.02 in   Overcast
9:36 AM 37.4 °F 31.4 °F 33.8 °F 87% 30.19 in 5.0 mi East 8.1 mph - 0.03 in   Overcast
9:56 AM 37.4 °F 32.1 °F 35.6 °F 93% 30.19 in 10.0 mi East 6.9 mph - 0.04 in   Overcast
10:16 AM 37.4 °F 31.4 °F 35.6 °F 93% 30.19 in 10.0 mi ESE 8.1 mph - N/A   Overcast
10:36 AM 37.4 °F 31.4 °F 35.6 °F 93% 30.19 in 10.0 mi ESE 8.1 mph - N/A   Overcast
10:56 AM 37.4 °F 30.8 °F 35.6 °F 93% 30.19 in 10.0 mi ESE 9.2 mph - N/A   Overcast
11:16 AM 37.4 °F 30.3 °F 35.6 °F 93% 30.18 in 10.0 mi East 10.4 mph - N/A   Overcast
11:36 AM 37.4 °F 30.8 °F 35.6 °F 93% 30.17 in 10.0 mi East 9.2 mph - N/A   Overcast
11:56 AM 37.4 °F 31.4 °F 35.6 °F 93% 30.17 in 10.0 mi East 8.1 mph - N/A   Overcast
12:16 PM 39.2 °F 34.2 °F 35.6 °F 87% 30.17 in 10.0 mi ESE 6.9 mph - N/A   Overcast
12:36 PM 39.2 °F 34.2 °F 35.6 °F 87% 30.16 in 10.0 mi ESE 6.9 mph - N/A   Overcast
12:56 PM 39.2 °F 33.6 °F 35.6 °F 87% 30.16 in 10.0 mi ESE 8.1 mph - N/A   Overcast
1:16 PM 39.2 °F 34.2 °F 35.6 °F 87% 30.15 in 10.0 mi ESE 6.9 mph - N/A   Overcast
1:36 PM 39.2 °F 35.0 °F 35.6 °F 87% 30.14 in 10.0 mi ESE 5.8 mph - N/A   Overcast
1:56 PM 39.2 °F 34.2 °F 35.6 °F 87% 30.13 in 10.0 mi East 6.9 mph - N/A   Overcast
2:16 PM 39.2 °F 34.2 °F 35.6 °F 87% 30.13 in 10.0 mi East 6.9 mph - N/A   Overcast
2:36 PM 39.2 °F 35.0 °F 35.6 °F 87% 30.12 in 10.0 mi East 5.8 mph - N/A   Overcast
2:56 PM 39.2 °F 35.9 °F 35.6 °F 87% 30.11 in 10.0 mi East 4.6 mph - N/A   Overcast
3:16 PM 39.2 °F 35.0 °F 35.6 °F 87% 30.10 in 10.0 mi East 5.8 mph - N/A   Overcast
3:36 PM 39.2 °F 35.0 °F 35.6 °F 87% 30.09 in 10.0 mi East 5.8 mph - N/A   Overcast
3:56 PM 39.2 °F 35.9 °F 35.6 °F 87% 30.09 in 10.0 mi East 4.6 mph - N/A   Mostly Cloudy
4:16 PM 37.4 °F 32.8 °F 35.6 °F 93% 30.08 in 10.0 mi East 5.8 mph - N/A   Overcast
4:36 PM 37.4 °F 32.8 °F 33.8 °F 87% 30.07 in 10.0 mi East 5.8 mph - N/A   Overcast
4:56 PM 37.4 °F 32.1 °F 35.6 °F 93% 30.06 in 10.0 mi East 6.9 mph - 0.01 in   Overcast
5:16 PM 37.4 °F 32.1 °F 35.6 °F 93% 30.05 in 10.0 mi East 6.9 mph - N/A   Overcast
5:36 PM 37.4 °F 32.1 °F 33.8 °F 87% 30.04 in 10.0 mi East 6.9 mph - N/A   Overcast
5:56 PM 39.2 °F 35.0 °F 35.6 °F 87% 30.03 in 10.0 mi East 5.8 mph - N/A   Overcast
6:16 PM 37.4 °F 32.8 °F 35.6 °F 93% 30.02 in 10.0 mi East 5.8 mph - N/A   Overcast
6:36 PM 37.4 °F 32.8 °F 33.8 °F 87% 30.01 in 10.0 mi ENE 5.8 mph - N/A   Overcast
6:56 PM 37.4 °F 32.1 °F 33.8 °F 87% 30.00 in 10.0 mi ENE 6.9 mph - 0.01 in   Overcast
7:16 PM 37.4 °F 33.8 °F 33.8 °F 87% 29.99 in 9.0 mi East 4.6 mph - 0.02 in   Overcast
7:36 PM 37.4 °F - 35.6 °F 93% 29.98 in 10.0 mi Calm Calm - 0.03 in   Overcast
7:56 PM 37.4 °F 32.8 °F 33.8 °F 87% 29.97 in 10.0 mi ENE 5.8 mph - 0.04 in   Overcast
8:16 PM 37.4 °F 32.8 °F 33.8 °F 87% 29.96 in 10.0 mi ENE 5.8 mph - 0.01 in   Overcast
8:36 PM 35.6 °F 29.9 °F 33.8 °F 93% 29.95 in 10.0 mi ENE 6.9 mph - 0.03 in   Overcast
8:56 PM 35.6 °F 29.2 °F 33.8 °F 93% 29.94 in 10.0 mi ENE 8.1 mph - 0.04 in   Overcast
9:16 PM 35.6 °F 29.9 °F 32.0 °F 87% 29.94 in 10.0 mi East 6.9 mph - N/A   Overcast
9:36 PM 35.6 °F 29.9 °F 32.0 °F 87% 29.93 in 10.0 mi ENE 6.9 mph - 0.01 in   Overcast
9:56 PM 35.6 °F 29.2 °F 32.0 °F 87% 29.92 in 10.0 mi ENE 8.1 mph - 0.02 in   Overcast
10:16 PM 35.6 °F 31.7 °F 32.0 °F 87% 29.91 in 10.0 mi East 4.6 mph - 0.01 in   Overcast
10:36 PM 35.6 °F 31.7 °F 32.0 °F 87% 29.90 in 10.0 mi East 4.6 mph - 0.01 in   Overcast
10:56 PM 35.6 °F 30.7 °F 32.0 °F 87% 29.90 in 10.0 mi East 5.8 mph - 0.02 in   Overcast
11:16 PM 35.6 °F 30.7 °F 32.0 °F 87% 29.89 in 10.0 mi ENE 5.8 mph - 0.01 in   Overcast
11:36 PM 35.6 °F 32.8 °F 32.0 °F 87% 29.89 in 10.0 mi East 3.5 mph - 0.02 in   Overcast
11:56 PM 35.6 °F 31.7 °F 32.0 °F 87% 29.89 in 9.0 mi East 4.6 mph - 0.02 in   Overcast